User: anonymous   Login
Location: Caltech
(34.1382°N, 118.1253°W)
Time: 15:23:38
(UTC-07:00)
Language:

OAO 1 Rocket - Orbit

View from above orbital plane
View from above orbital plane
View from above satellite
View from above satellite

Ground track
Ground track

The orbit data is extracted from the following two-line orbital elements,

1  2144U 66031B   17114.53419688 +.00000123 +00000-0 +42372-4 0  9993
2  2144 035.0413 138.4162 0008045 083.6033 276.5573 14.42615400679930
Epoch (UTC): 24 April 2017 12:49:14
Eccentricity: 0.0008045
inclination: 35.0413°
perigee height: 744 km
apogee height: 755 km
right ascension of ascending node: 138.4162°
argument of perigee: 83.6033°
revolutions per day: 14.42615400
mean anomaly at epoch: 276.5573°
orbit number at epoch: 67993

The dashed part of the orbit path shows where the satellite is in the earth's shadow,  

DLR